Weather History for Hoonah, AK

Change the Weather History Date:

Monday, February 11, 2013

  Actual Average Record
Temperature  
Mean Temperature 36 °F -  
Max Temperature 41 °F 34 °F 48 °F (2006)
Min Temperature 30 °F 27 °F 10 °F (2014)
Degree Days  
Heating Degree Days 30    
Moisture  
Dew Point 35 °F    
Average Humidity 96    
Maximum Humidity 100    
Minimum Humidity 82    
Precipitation  
Precipitation 0.00 in - - ()
Sea Level Pressure  
Sea Level Pressure 29.86 in    
Wind  
Wind Speed 3 mph (West)    
Max Wind Speed 7 mph    
Max Gust Speed -    
Visibility 9 miles    
Events Rain    
Averages and records for this station are not official NWS values.
T = Trace of Precipitation, MM = Missing Value Source: NWS Daily Summary

Daily Weather History Graph

Daily Weather History Graph

Search for Another Location

Airport:

Trip Planner

Search our weather history database for the weather conditions in past years. The results will help you decide how hot, cold, wet, or windy it might be!

Date:

Astronomy

Feb. 11, 2013 Rise Set
Actual Time 7:42 AM AKST 4:50 PM AKST
Civil Twilight 7:00 AM AKST 5:32 PM AKST
Nautical Twilight 6:13 AM AKST 6:19 PM AKST
Astronomical Twilight 5:28 AM AKST 7:04 PM AKST
Moon 7:37 AM AKST (2/11) 7:36 PM AKST (2/11)
Length of Visible Light 10h 32m
Length of Day
9h 08m
Waxing Crescent, 3% of the Moon is Illuminated
Feb 11
Waxing Crescent
Feb 17
First Quarter
Feb 25
Full
Mar 4
Last Quarter
Mar 11
New

Hourly Weather History & Observations

Time (AKST) Temp. Windchill Dew Point Humidity Pressure Visibility Wind Dir Wind Speed Gust Speed Precip Events Conditions
12:56 AM 36.0 °F 32.1 °F 36.0 °F 100% 29.87 in 10.0 mi ESE 4.6 mph - 0.00 in   Mostly Cloudy
1:56 AM 36.9 °F 31.4 °F 36.9 °F 100% 29.84 in 10.0 mi East 6.9 mph - N/A   Mostly Cloudy
2:56 AM 35.6 °F - 35.6 °F 100% 29.83 in 10.0 mi Calm Calm - N/A   Mostly Cloudy
3:56 AM 34.9 °F - 34.9 °F 100% 29.81 in 10.0 mi Calm Calm - 0.00 in   Mostly Cloudy
4:56 AM 36.9 °F 34.3 °F 36.9 °F 100% 29.83 in 10.0 mi Variable 3.5 mph - 0.00 in Rain Light Rain
5:56 AM 37.4 °F 34.9 °F 37.4 °F 100% 29.83 in 10.0 mi East 3.5 mph - N/A   Mostly Cloudy
6:56 AM 36.0 °F - 36.0 °F 100% 29.84 in 10.0 mi Calm Calm - 0.00 in   Overcast
7:56 AM 36.0 °F 33.3 °F 36.0 °F 100% 29.85 in 10.0 mi Variable 3.5 mph - N/A   Mostly Cloudy
8:56 AM 38.8 °F 35.4 °F 37.9 °F 97% 29.86 in 10.0 mi Variable 4.6 mph - N/A   Scattered Clouds
9:56 AM 39.9 °F 36.7 °F 37.9 °F 93% 29.88 in 10.0 mi Variable 4.6 mph - 0.00 in   Mostly Cloudy
10:22 AM 39.2 °F 35.0 °F 37.4 °F 93% 29.88 in 5.0 mi West 5.8 mph - 0.00 in Rain Light Rain
10:56 AM 39.9 °F 36.7 °F 37.9 °F 93% 29.89 in 10.0 mi Variable 4.6 mph - 0.00 in   Scattered Clouds
11:56 AM 41.0 °F 36.4 °F 37.4 °F 87% 29.90 in 8.0 mi WNW 6.9 mph - N/A Rain Light Rain
12:12 PM 41.0 °F 38.0 °F 37.4 °F 87% 29.90 in 10.0 mi NNW 4.6 mph - 0.00 in   Mostly Cloudy
12:56 PM 41.9 °F 37.5 °F 37.9 °F 86% 29.90 in 10.0 mi West 6.9 mph - 0.00 in   Overcast
1:56 PM 41.0 °F 37.1 °F 36.0 °F 82% 29.91 in 10.0 mi West 5.8 mph - 0.00 in   Mostly Cloudy
2:56 PM 39.2 °F - 37.4 °F 93% 29.90 in 10.0 mi Calm Calm - N/A   Mostly Cloudy
3:56 PM 37.9 °F - 36.0 °F 93% 29.90 in 10.0 mi Calm Calm - N/A   Partly Cloudy
4:56 PM 37.9 °F 35.5 °F 36.9 °F 96% 29.89 in 8.0 mi SW 3.5 mph - 0.00 in   Overcast
5:56 PM 34.9 °F - 34.9 °F 100% 29.88 in 10.0 mi Calm Calm - 0.00 in   Mostly Cloudy
6:56 PM 32.9 °F 29.8 °F 32.9 °F 100% 29.87 in 10.0 mi ESE 3.5 mph - N/A   Partly Cloudy
7:56 PM 31.1 °F 27.7 °F 31.1 °F 100% 29.86 in 10.0 mi East 3.5 mph - N/A   Clear
8:56 PM 30.2 °F - 30.2 °F 100% 29.85 in 10.0 mi Calm Calm - N/A   Overcast
9:56 PM 32.0 °F - 32.0 °F 100% 29.84 in 10.0 mi Calm Calm - N/A   Overcast
10:56 PM 32.0 °F - 32.0 °F 100% 29.82 in 10.0 mi Calm Calm - N/A   Overcast
11:56 PM 30.2 °F - 30.2 °F 100% 29.80 in 1.5 mi Calm Calm - N/A   Clear
11:59 PM 30.2 °F - 30.2 °F 100% 29.80 in 1.0 mi Calm Calm - N/A   Clear